| time (UTC) | temp C | wind direction | speed KPH | gust KPH | rain 1hr cm | rain 24hr cm | rain mn cm | humidity % | barometer mb |
| 20260510164546 | 23 | 301 | 0.0 | 3.2 | 0.08 | 1.42 | 0.64 | 90 | 1016.3 |
| 20260510163041 | 22 | 0 | 0.0 | 3.2 | 0.05 | 1.40 | 0.61 | 93 | 1016.5 |
| 20260510161546 | 22 | 311 | 0.0 | 4.8 | 0.08 | 1.40 | 0.61 | 94 | 1016.6 |
| 20260510160101 | 22 | 36 | 0.0 | 4.8 | 0.05 | 1.37 | 0.58 | 94 | 1016.7 |
| 20260510154556 | 22 | 0 | 0.0 | 1.6 | 0.05 | 1.42 | 0.56 | 96 | 1016.5 |
| 20260510153045 | 21 | 264 | 0.0 | 0.0 | 0.05 | 1.42 | 0.56 | 97 | 1016.7 |
| 20260510151541 | 21 | 0 | 0.0 | 1.6 | 0.05 | 1.40 | 0.53 | 97 | 1016.7 |
| 20260510150043 | 20 | 0 | 0.0 | 1.6 | 0.05 | 1.40 | 0.53 | 97 | 1016.5 |
| 20260510144558 | 20 | 0 | 0.0 | 1.6 | 0.05 | 1.45 | 0.51 | 98 | 1016.6 |
| 20260510143041 | 20 | 0 | 0.0 | 3.2 | 0.05 | 1.45 | 0.51 | 97 | 1016.6 |
| 20260510141545 | 20 | 0 | 0.0 | 1.6 | 0.05 | 1.42 | 0.48 | 98 | 1016.6 |
| 20260510140045 | 19 | 0 | 0.0 | 0.0 | 0.05 | 1.42 | 0.48 | 98 | 1016.6 |
| 20260510134553 | 19 | 0 | 0.0 | 0.0 | 0.05 | 1.47 | 0.46 | 98 | 1016.5 |
| 20260510133046 | 18 | 0 | 0.0 | 0.0 | 0.05 | 1.47 | 0.46 | 98 | 1016.5 |
| 20260510131547 | 18 | 0 | 0.0 | 1.6 | 0.05 | 1.45 | 0.43 | 98 | 1016.2 |
| 20260510130047 | 18 | 0 | 0.0 | 0.0 | 0.05 | 1.45 | 0.43 | 97 | 1015.9 |
| 20260510124557 | 18 | 0 | 0.0 | 0.0 | 0.05 | 1.47 | 0.41 | 97 | 1015.8 |
| 20260510123045 | 18 | 0 | 0.0 | 0.0 | 0.05 | 1.47 | 0.41 | 97 | 1015.6 |
| 20260510121551 | 18 | 0 | 0.0 | 0.0 | 0.05 | 1.47 | 0.38 | 97 | 1015.4 |
| 20260510120041 | 18 | 0 | 0.0 | 0.0 | 0.05 | 1.47 | 0.38 | 97 | 1015.1 |
| 20260510114538 | 17 | 0 | 0.0 | 0.0 | 0.05 | 1.47 | 0.36 | 97 | 1014.6 |
| 20260510113045 | 18 | 0 | 0.0 | 0.0 | 0.05 | 1.47 | 0.36 | 97 | 1014.3 |
| 20260510111534 | 17 | 0 | 0.0 | 0.0 | 0.05 | 1.45 | 0.33 | 97 | 1013.9 |
| 20260510110046 | 17 | 0 | 0.0 | 0.0 | 0.05 | 1.45 | 0.33 | 97 | 1013.7 |
| 20260510104544 | 18 | 0 | 0.0 | 0.0 | 0.05 | 1.45 | 0.30 | 97 | 1013.4 |
| 20260510103041 | 18 | 0 | 0.0 | 0.0 | 0.05 | 1.45 | 0.30 | 97 | 1013.2 |
| 20260510101549 | 18 | 0 | 0.0 | 0.0 | 0.05 | 1.42 | 0.28 | 97 | 1013.1 |
| 20260510100045 | 18 | 0 | 0.0 | 0.0 | 0.05 | 1.42 | 0.28 | 97 | 1013.0 |
| 20260510094554 | 18 | 0 | 0.0 | 0.0 | 0.05 | 1.47 | 0.25 | 97 | 1012.9 |
| 20260510093059 | 18 | 0 | 0.0 | 0.0 | 0.05 | 1.47 | 0.25 | 97 | 1013.0 |
| 20260510091545 | 18 | 0 | 0.0 | 0.0 | 0.05 | 1.45 | 0.23 | 97 | 1012.9 |
| 20260510090042 | 18 | 0 | 0.0 | 0.0 | 0.05 | 1.45 | 0.23 | 97 | 1013.1 |
| 20260510084539 | 18 | 0 | 0.0 | 0.0 | 0.05 | 1.47 | 0.20 | 97 | 1013.0 |
| 20260510083037 | 18 | 0 | 0.0 | 0.0 | 0.05 | 1.47 | 0.20 | 97 | 1013.0 |
| 20260510081546 | 18 | 0 | 0.0 | 0.0 | 0.05 | 1.47 | 0.18 | 97 | 1012.9 |
| 20260510080036 | 18 | 0 | 0.0 | 0.0 | 0.08 | 1.47 | 0.18 | 97 | 1012.9 |
| 20260510074543 | 18 | 0 | 0.0 | 0.0 | 0.05 | 1.55 | 0.15 | 97 | 1012.8 |
| 20260510073045 | 18 | 0 | 0.0 | 0.0 | 0.08 | 1.55 | 0.15 | 97 | 1012.5 |
| 20260510071548 | 18 | 0 | 0.0 | 0.0 | 0.05 | 1.52 | 0.13 | 97 | 1012.1 |
| 20260510070039 | 18 | 0 | 0.0 | 0.0 | 0.05 | 1.47 | 0.10 | 97 | 1012.4 |
| 20260510064543 | 18 | 0 | 0.0 | 0.0 | 0.05 | 1.63 | 0.10 | 97 | 1012.5 |
| 20260510063045 | 18 | 0 | 0.0 | 0.0 | 0.05 | 1.60 | 0.08 | 97 | 1012.5 |
| 20260510061542 | 19 | 0 | 0.0 | 0.0 | 0.08 | 1.60 | 0.08 | 97 | 1012.7 |
| 20260510060042 | 19 | 0 | 0.0 | 0.0 | 0.05 | 1.57 | 0.05 | 97 | 1012.8 |
| 20260510054545 | 19 | 0 | 0.0 | 0.0 | 0.08 | 1.73 | 0.05 | 97 | 1012.8 |
| 20260510053058 | 18 | 0 | 0.0 | 0.0 | 0.05 | 1.70 | 0.03 | 97 | 1012.9 |
| 20260510051549 | 18 | 0 | 0.0 | 0.0 | 0.05 | 1.68 | 0.00 | 97 | 1012.8 |
| 20260510050045 | 18 | 0 | 0.0 | 0.0 | 0.08 | 1.68 | 0.00 | 97 | 1013.0 |
| 20260510044540 | 18 | 0 | 0.0 | 0.0 | 0.05 | 1.85 | 1.65 | 97 | 1012.8 |
| 20260510043045 | 18 | 0 | 0.0 | 0.0 | 0.08 | 1.85 | 1.65 | 97 | 1012.8 |
| 20260510041540 | 18 | 0 | 0.0 | 0.0 | 0.05 | 1.83 | 1.63 | 97 | 1012.7 |
| 20260510040048 | 18 | 0 | 0.0 | 0.0 | 0.05 | 1.80 | 1.60 | 97 | 1012.5 |
| 20260510034554 | 19 | 0 | 0.0 | 0.0 | 0.08 | 2.06 | 1.60 | 97 | 1012.6 |
| 20260510033050 | 19 | 0 | 0.0 | 0.0 | 0.05 | 2.03 | 1.57 | 97 | 1012.8 |
| 20260510031548 | 19 | 0 | 0.0 | 0.0 | 0.08 | 2.03 | 1.57 | 97 | 1012.6 |
| 20260510030040 | 19 | 0 | 0.0 | 0.0 | 0.05 | 2.01 | 1.55 | 97 | 1013.1 |
| 20260510024541 | 19 | 0 | 0.0 | 0.0 | 0.05 | 2.24 | 1.52 | 97 | 1012.8 |
| 20260510023045 | 19 | 0 | 0.0 | 0.0 | 0.08 | 2.24 | 1.52 | 97 | 1012.7 |
| 20260510021550 | 19 | 0 | 0.0 | 0.0 | 0.05 | 2.21 | 1.47 | 97 | 1012.4 |
| 20260510020045 | 19 | 0 | 0.0 | 0.0 | 0.08 | 2.21 | 1.47 | 97 | 1012.6 |
| 20260510014541 | 19 | 0 | 0.0 | 0.0 | 0.08 | 2.41 | 1.47 | 97 | 1012.8 |
| 20260510013047 | 19 | 0 | 0.0 | 1.6 | 0.08 | 2.39 | 1.45 | 97 | 1013.0 |
| 20260510011550 | 19 | 0 | 0.0 | 1.6 | 0.08 | 2.39 | 1.45 | 97 | 1012.3 |
| 20260510010037 | 19 | 0 | 0.0 | 0.0 | 0.08 | 2.36 | 1.42 | 97 | 1012.2 |
| 20260510004545 | 19 | 0 | 0.0 | 3.2 | 0.05 | 2.54 | 1.40 | 97 | 1011.8 |
| 20260510003046 | 19 | 0 | 0.0 | 1.6 | 0.05 | 2.51 | 1.37 | 97 | 1011.0 |
| 20260510001544 | 19 | 0 | 0.0 | 1.6 | 0.08 | 2.51 | 1.37 | 97 | 1012.0 |
| 20260510000049 | 18 | 0 | 0.0 | 0.0 | 0.05 | 2.49 | 1.32 | 97 | 1011.4 |
| 20260509234538 | 18 | 97 | 0.0 | 1.6 | 0.08 | 2.67 | 1.32 | 97 | 1011.4 |
| 20260509233037 | 18 | 0 | 0.0 | 0.0 | 0.08 | 2.64 | 1.32 | 97 | 1011.8 |
| 20260509231545 | 18 | 0 | 0.0 | 1.6 | 0.05 | 2.64 | 1.30 | 97 | 1011.8 |
| 20260509230044 | 18 | 0 | 0.0 | 0.0 | 0.08 | 2.64 | 1.30 | 97 | 1011.7 |
| 20260509224540 | 18 | 0 | 0.0 | 0.0 | 0.08 | 2.82 | 1.27 | 97 | 1012.0 |
| 20260509223039 | 18 | 0 | 0.0 | 0.0 | 0.05 | 2.79 | 1.24 | 97 | 1011.6 |
| 20260509221540 | 18 | 0 | 0.0 | 0.0 | 0.08 | 2.79 | 1.24 | 97 | 1011.3 |
| 20260509220048 | 18 | 0 | 0.0 | 1.6 | 0.08 | 2.77 | 1.22 | 97 | 1011.7 |
| 20260509214557 | 18 | 0 | 0.0 | 0.0 | 0.05 | 2.95 | 1.19 | 97 | 1011.8 |
| 20260509213045 | 18 | 0 | 0.0 | 1.6 | 0.08 | 2.95 | 1.19 | 97 | 1011.2 |
| 20260509211542 | 18 | 0 | 0.0 | 0.0 | 0.05 | 2.92 | 1.17 | 97 | 1011.3 |
| 20260509210045 | 18 | 0 | 0.0 | 0.0 | 0.05 | 2.90 | 1.14 | 97 | 1011.1 |
| 20260509204547 | 18 | 0 | 0.0 | 1.6 | 0.05 | 3.12 | 1.14 | 97 | 1010.7 |
| 20260509203057 | 18 | 94 | 1.6 | 3.2 | 0.05 | 3.10 | 1.12 | 97 | 1010.7 |
| 20260509201538 | 18 | 0 | 0.0 | 3.2 | 0.08 | 3.10 | 1.12 | 97 | 1012.0 |
| 20260509200045 | 18 | 110 | 0.0 | 1.6 | 0.05 | 3.07 | 1.09 | 97 | 1011.2 |
| 20260509194549 | 18 | 21 | 0.0 | 3.2 | 0.05 | 3.30 | 1.07 | 97 | 1012.2 |
| 20260509193043 | 18 | 0 | 0.0 | 0.0 | 0.05 | 3.30 | 1.07 | 97 | 1012.8 |
| 20260509191551 | 18 | 94 | 0.0 | 1.6 | 0.05 | 3.28 | 1.04 | 97 | 1012.1 |
| 20260509190037 | 18 | 0 | 0.0 | 1.6 | 0.05 | 3.28 | 1.04 | 97 | 1012.1 |
| 20260509184545 | 18 | 0 | 0.0 | 1.6 | 0.05 | 3.48 | 1.02 | 97 | 1012.2 |
| 20260509183053 | 18 | 0 | 0.0 | 0.0 | 0.08 | 3.48 | 1.02 | 97 | 1012.4 |
| 20260509181545 | 18 | 0 | 0.0 | 1.6 | 0.05 | 3.45 | 0.99 | 97 | 1012.2 |
| 20260509180044 | 18 | 0 | 0.0 | 0.0 | 0.05 | 3.45 | 0.99 | 97 | 1012.3 |
| 20260509174555 | 18 | 0 | 0.0 | 1.6 | 0.05 | 3.51 | 0.97 | 97 | 1012.3 |
| 20260509173049 | 18 | 0 | 0.0 | 3.2 | 0.03 | 3.48 | 0.94 | 97 | 1011.9 |
| 20260509171547 | 18 | 0 | 0.0 | 1.6 | 0.05 | 3.48 | 0.94 | 97 | 1012.3 |
| 20260509170045 | 18 | 0 | 0.0 | 1.6 | 0.05 | 3.48 | 0.94 | 97 | 1012.5 |